User: anonymous   Login
Location: Zagreb
(45.8000°N, 16.0000°E)
Time: 01:10:35
(UTC+01:00)
Language:

SR - Orbit

View from above orbital plane
View from above orbital plane
View from above satellite
View from above satellite

Ground track
Ground track

The orbit data is extracted from the following two-line orbital elements,

1 00046U 60007B   21025.53018337 -.00000023  00000-0  18695-4 0  9992
2 00046  66.6899 166.4607 0214631 324.0842  34.5994 14.49360801171296
Epoch (UTC): 25 January 2021 12:43:27
Eccentricity: 0.0214631
inclination: 66.6899°
perigee height: 575 km
apogee height: 880 km
right ascension of ascending node: 166.4607°
argument of perigee: 324.0842°
revolutions per day: 14.49360801
mean anomaly at epoch: 34.5994°
orbit number at epoch: 17129

The dashed part of the orbit path shows where the satellite is in the earth's shadow,  

DLR